Content
SEND FEEDBACK

Daily
Averages
Monthly
Summary
United States of America

SOUTHPORT, NORTH CAROLINA


Home > North America > United States > North Carolina
Elevation: 38 feet     Latitude: 34 00N     Longitude: 078 01W

WEATHER
 
SELECT A DAY
Number of Records: 136,443;   Date Range: 8/21/01 - 7/29/14
 
SHARE

PRINT THIS DATA

[ ← Previous Day ]
WEATHER ALMANAC - JANUARY 31, 2013
[ Next Day → ]
[ °C ]   °F
Weather ElementAverageHighLow
Temperature50 °F63.7 °F (1:15 am)43.7 °F (9:55 pm)
Dewpoint33.4 °F60.8 °F (1:35 am)19.8 °F (6:55 pm)
Humidity56.1 %96 % (1:55 am)30 % (4:55 pm)
Barometer29.89 in30.12 in (11:35 pm)29.59 in (1:15 am)
Wind Speed15.3 mph31.1 mph (1:35 am)
Wind Gust41.4 mph (1:35 am)
Weather ElementAverage
Visibility9.4 mi
Wind DirectionWSW (257.4 °)

Weather ElementTotal
Precipitation0.21 in
Heating Degree Days11.3 (Base 65)
Growing Degree Days3.7 (Base 50)
Averaged from 69 records on January 31, 2013
WEATHER CONDITIONS BREAKOUT
WIND DIRECTION BREAKOUT
WEATHER BY HOUR - JANUARY 31, 2013
[ °C ]   °F
Local TimeTemperatureDewpointHumidityBarometerVisibilityWind DirectionWind SpeedGust SpeedPrecipitationEventsConditions
12:35 AM63.5 °F60.1 °F89 %29.60 in5.0 miSouth (180°)18.4 mph31.1 mphMostly Cloudy
12:55 AM63.5 °F60.3 °F89 %29.60 in5.0 miSouth (180°)15.0 mph29.9 mphMostly Cloudy
1:15 AM63.7 °F60.3 °F89 %29.59 in5.0 miSouth (190°)17.3 mph27.6 mphOvercast
1:35 AM63.5 °F60.8 °F91 %29.63 in4.0 miWSW (250°)31.1 mph41.4 mphRainRain
1:55 AM55.4 °F54.1 °F96 %29.61 in4.0 miWest (260°)12.7 mph24.2 mph0.16 inOvercast
2:15 AM56.5 °F54.0 °F91 %29.64 in5.0 miWest (260°)19.6 mph32.2 mphRainRain
2:35 AM54.5 °F52.2 °F92 %29.61 in7.0 miWSW (250°)19.6 mph25.3 mphRainLight Rain
2:55 AM52.9 °F51.3 °F94 %29.64 in7.0 miWest (260°)17.3 mph25.3 mph0.01 inRainRain
3:15 AM52.3 °F50.2 °F92 %29.64 in7.0 miWest (260°)21.9 mph28.8 mphRainLight Rain
3:35 AM50.5 °F47.3 °F89 %29.70 in7.0 miWSW (250°)17.3 mph27.6 mph0.02 inRainRain
3:55 AM50.5 °F46.0 °F85 %29.69 in10.0 miWest (260°)19.6 mph27.6 mph0.02 inMostly Cloudy
4:15 AM50.9 °F45.3 °F81 %29.73 in10.0 miWSW (250°)18.4 mph31.1 mphMostly Cloudy
4:35 AM50.9 °F45.5 °F82 %29.75 in10.0 miWSW (250°)17.3 mph24.2 mphMostly Cloudy
4:55 AM50.9 °F45.1 °F81 %29.72 in10.0 miWest (260°)20.7 mph26.5 mphMostly Cloudy
5:15 AM50.4 °F44.8 °F81 %29.73 in10.0 miWSW (250°)13.8 mph25.3 mphScattered Clouds
5:35 AM50.4 °F46.0 °F85 %29.75 in10.0 miWSW (240°)18.4 mph25.3 mphScattered Clouds
5:55 AM50.4 °F46.0 °F85 %29.75 in10.0 miWSW (250°)15.0 mph25.3 mphOvercast
6:15 AM50.4 °F45.7 °F84 %29.76 in10.0 miWSW (250°)15.0 mph27.6 mphMostly Cloudy
6:35 AM50.2 °F45.5 °F84 %29.77 in10.0 miWSW (250°)17.3 mph25.3 mphMostly Cloudy
6:55 AM50.0 °F43.5 °F78 %29.79 in10.0 miWest (280°)18.4 mph24.2 mphMostly Cloudy
7:15 AM48.2 °F36.7 °F64 %29.81 in10.0 miWest (260°)19.6 mph29.9 mphScattered Clouds
7:35 AM47.5 °F33.4 °F58 %29.82 in10.0 miWest (260°)24.2 mph35.7 mphClear
7:55 AM47.3 °F33.6 °F59 %29.84 in10.0 miWest (270°)20.7 mph28.8 mphClear
8:15 AM47.3 °F33.3 °F58 %29.86 in10.0 miWest (270°)24.2 mph32.2 mphClear
8:35 AM46.9 °F30.9 °F54 %29.87 in10.0 miWest (280°)19.6 mph34.5 mphClear
8:55 AM47.3 °F31.8 °F55 %29.88 in10.0 miWest (260°)11.5 mph20.7 mphClear
9:15 AM47.5 °F32.2 °F55 %29.90 in10.0 miWest (260°)18.4 mph27.6 mphScattered Clouds
9:35 AM47.5 °F31.8 °F55 %29.91 in10.0 miWest (270°)19.6 mph31.1 mphScattered Clouds
9:55 AM48.2 °F31.3 °F52 %29.92 in10.0 miWest (260°)18.4 mph28.8 mphScattered Clouds
10:15 AM48.0 °F30.0 °F50 %29.93 in10.0 miWest (260°)17.3 mph31.1 mphClear
10:35 AM48.9 °F30.9 °F50 %29.92 in10.0 miWest (260°)17.3 mph26.5 mphClear
10:55 AM49.5 °F30.0 °F47 %29.93 in10.0 miWest (270°)16.1 mph27.6 mphClear
11:15 AM50.0 °F30.4 °F47 %29.92 in10.0 miWest (270°)13.8 mph23.0 mphClear
11:35 AM50.4 °F29.3 °F44 %29.92 in10.0 miWNW (290°)13.8 mph23.0 mphClear
11:55 AM51.1 °F29.5 °F43 %29.93 in10.0 miWest (280°)17.3 mph24.2 mphClear
12:15 PM51.4 °F28.6 °F41 %29.92 in10.0 miWest (270°)15.0 mph23.0 mphClear
12:35 PM52.2 °F28.2 °F40 %29.92 in10.0 miWest (280°)13.8 mph25.3 mphClear
12:55 PM53.1 °F27.9 °F38 %29.92 in10.0 miWest (270°)17.3 mph23.0 mphClear
1:15 PM52.5 °F29.3 °F41 %29.91 in10.0 miSW (230°)16.1 mph21.9 mphClear
1:35 PM50.5 °F32.4 °F50 %29.91 in10.0 miSW (230°)15.0 mph25.3 mphClear
1:55 PM50.9 °F32.4 °F49 %29.91 in10.0 miWSW (240°)18.4 mph23.0 mphClear
2:15 PM50.4 °F31.8 °F49 %29.91 in10.0 miSW (230°)16.1 mph25.3 mphClear
2:35 PM50.2 °F32.0 °F50 %29.92 in10.0 miSW (230°)20.7 mph27.6 mphClear
2:55 PM50.0 °F30.4 °F47 %29.92 in10.0 miSW (230°)18.4 mph26.5 mphClear
3:15 PM50.2 °F32.0 °F50 %29.92 in10.0 miSW (230°)12.7 mph18.4 mphClear
3:35 PM50.4 °F31.1 °F48 %29.93 in10.0 miWSW (240°)17.3 mphClear
3:55 PM50.9 °F30.6 °F46 %29.94 in10.0 miWest (260°)12.7 mph24.2 mphClear
4:15 PM52.0 °F22.3 °F31 %29.94 in10.0 miWest (260°)13.8 mph25.3 mphClear
4:35 PM51.6 °F24.4 °F35 %29.95 in10.0 miWest (270°)17.3 mph23.0 mphClear
4:55 PM51.6 °F21.2 °F30 %29.96 in10.0 miWest (270°)9.2 mph20.7 mphClear
5:15 PM50.7 °F21.2 °F31 %29.97 in10.0 miWest (270°)12.7 mph19.6 mphClear
5:35 PM50.0 °F20.5 °F31 %29.98 in10.0 miWest (270°)11.5 mph18.4 mphClear
5:55 PM48.6 °F20.3 °F33 %30.00 in10.0 miWest (280°)9.2 mphClear
6:15 PM47.8 °F20.5 °F34 %30.01 in10.0 miWest (260°)11.5 mphClear
6:35 PM47.5 °F19.9 °F34 %30.03 in10.0 miWest (270°)12.7 mph17.3 mphClear
6:55 PM47.3 °F19.8 °F34 %30.03 in10.0 miWest (270°)11.5 mph17.3 mphClear
7:15 PM46.8 °F19.9 °F35 %30.05 in10.0 miWest (270°)10.4 mph17.3 mphClear
7:35 PM46.4 °F20.3 °F36 %30.06 in10.0 miWest (270°)10.4 mphClear
8:15 PM46.0 °F19.8 °F35 %30.07 in10.0 miWest (270°)8.1 mphClear
8:35 PM45.5 °F20.1 °F36 %30.07 in10.0 miWest (270°)8.1 mphClear
8:55 PM45.1 °F20.3 °F37 %30.07 in10.0 miWest (280°)6.9 mphClear
9:15 PM44.2 °F20.8 °F39 %30.08 in10.0 miWest (260°)6.9 mphClear
9:35 PM44.1 °F21.4 °F41 %30.09 in10.0 miWest (270°)6.9 mphClear
9:55 PM43.7 °F21.4 °F41 %30.09 in10.0 miWest (270°)8.1 mphClear
10:15 PM43.9 °F21.7 °F41 %30.10 in10.0 miWest (270°)8.1 mphClear
10:35 PM44.1 °F21.6 °F41 %30.11 in10.0 miWest (270°)8.1 mphClear
11:15 PM44.4 °F21.6 °F40 %30.11 in10.0 miWest (270°)10.4 mph16.1 mphClear
11:35 PM44.6 °F21.4 °F40 %30.12 in10.0 miWest (270°)12.7 mphClear
11:55 PM43.9 °F21.2 °F41 %30.11 in10.0 miWest (260°)11.5 mph16.1 mphClear
Hourly data recorded from KSUT, located miles away from Southport, North Carolina







STORIES FROM OUR PARTNERS